Home   Weather   Dayton   Past weeks

Flag for USA Past Weather in Dayton, Ohio, USA — Yesterday and Last 2 Weeks

Now
54 °F

Overcast.


Feels Like: 54 °F
Forecast: 54 / 64 °F
Wind: No wind

Location: Dayton / Wright-Patterson Air Force Base

Current Time: Feb 22, 2017 at 1:41:53 am

Latest Report: Feb 22, 2017 at 12:58 am


Visibility: 10 mi

Pressure: 29.93 "Hg

Humidity: 100%

Dew Point: 54 °F

Location of DaytonLocation

Past Weather in Dayton — Graph

°F

Dayton Temperature Yesterday

Maximum temperature yesterday: 65 °F (at 1:58 pm)
Minimum temperature yesterday: 43 °F (at 2:58 am)
Average temperature yesterday: 55 °F

High & Low Weather Summary for the Past Weeks

 TemperatureHumidityPressure
High66 °F (Feb 20, 3:58 pm)100% (Feb 6, 11:32 pm)30.42 "Hg (Feb 6, 11:32 pm)
Low13 °F (Feb 9, 10:58 pm)27% (Feb 13, 3:58 pm)29.44 "Hg (Feb 7, 3:38 pm)
Average43 °F72%29.95 "Hg
* Reported Feb 6 11:32 pm — Feb 21 11:58 pm, Dayton, Weather by CustomWeather, © 2017

Note: Actual official high and low records may vary slightly from our data, if they occured in-between our weather recording intervals... More about our weather records

Advertising

Dayton Weather History for the Previous 24 Hours

Scroll right to see more
 ConditionsComfort  
Time TempWeatherWind HumidityBarometerVisibility
11:58 pm
Tue, Feb 21
54 °FOvercast.3 mph100%29.96 "Hg10 mi
10:58 pm55 °FLight rain. Overcast.7 mph100%29.96 "Hg10 mi
9:58 pm56 °FLight rain. Overcast.5 mph100%29.99 "Hg7 mi
8:58 pm57 °FDrizzle. Overcast.9 mph96%29.99 "Hg10 mi
7:58 pm58 °FDrizzle. Overcast.13 mph84%29.98 "Hg10 mi
6:58 pm59 °FPassing clouds.9 mph76%29.98 "Hg10 mi
5:58 pm62 °FPassing clouds.5 mph66%29.97 "Hg10 mi
4:58 pm64 °FPassing clouds.8 mph57%29.98 "Hg10 mi
3:58 pm65 °FSunny.6 mph54%29.98 "Hg10 mi
2:58 pm65 °FScattered clouds.13 mph52%29.97 "Hg10 mi
1:58 pm65 °FOvercast.13 mph51%29.99 "Hg10 mi
12:58 pm64 °FScattered clouds.12 mph52%30.00 "Hg10 mi
11:58 am63 °FScattered clouds.7 mph53%30.02 "Hg10 mi
10:58 am60 °FPartly sunny.5 mph65%30.02 "Hg10 mi
9:58 am55 °FPassing clouds.No wind70%30.03 "Hg10 mi
8:58 am50 °FPassing clouds.No wind88%30.04 "Hg10 mi
7:58 am48 °FOvercast.5 mph84%30.02 "Hg10 mi
6:58 am47 °FHigh level clouds.3 mph83%30.02 "Hg10 mi
5:58 am47 °FPassing clouds.3 mph87%30.02 "Hg10 mi
4:58 am47 °FPassing clouds.No wind85%30.01 "Hg10 mi
3:58 am45 °FClear.5 mph96%30.03 "Hg10 mi
2:58 am43 °FHigh level clouds.No wind100%30.04 "Hg10 mi
1:58 am44 °FHigh level clouds.No wind99%30.05 "Hg10 mi
Weather by CustomWeather, © 2017

See weather overviewHow to use our weather pages